EN

Hourly Weather Abanto

Today, 13 June, Sunday

Time Temperature Precipitation Wind Pressure Humidity
00:00 +19°C° 0 mm 2 mps 686 mmHg 57%
01:00 +18°C° 0 mm 2 mps 686 mmHg 57%
02:00 +18°C° 0 mm 2 mps 686 mmHg 57%
03:00 +17°C° 0 mm 2 mps 686 mmHg 56%
04:00 +18°C° 0 mm 2 mps 686 mmHg 55%
05:00 +20°C° 0 mm 1 mps 686 mmHg 54%
06:00 +20°C° 0 mm 1 mps 686 mmHg 53%
07:00 +21°C° 0 mm 2 mps 687 mmHg 49%
08:00 +24°C° 0 mm 2 mps 687 mmHg 44%
09:00 +25°C° 0 mm 3 mps 687 mmHg 40%
10:00 +27°C° 0 mm 3 mps 687 mmHg 35%
11:00 +28°C° 0 mm 3 mps 687 mmHg 31%
12:00 +29°C° 0 mm 3 mps 687 mmHg 27%
13:00 +30°C° 0 mm 3 mps 687 mmHg 26%
14:00 +31°C° 0 mm 3 mps 686 mmHg 25%
15:00 +32°C° 0 mm 4 mps 686 mmHg 24%
16:00 +32°C° 0 mm 4 mps 686 mmHg 26%
17:00 +30°C° 0 mm 4 mps 686 mmHg 29%
18:00 +29°C° 0 mm 5 mps 685 mmHg 31%
19:00 +27°C° 0 mm 4 mps 685 mmHg 35%
20:00 +25°C° 0 mm 3 mps 685 mmHg 40%
21:00 +22°C° 0 mm 3 mps 686 mmHg 45%
22:00 +23°C° 0 mm 2 mps 685 mmHg 45%
23:00 +21°C° 0 mm 2 mps 685 mmHg 46%

Tomorrow, 14 June, Monday

Time Temperature Precipitation Wind Pressure Humidity
00:00 +20°C° 0 mm 2 mps 685 mmHg 47%
01:00 +21°C° 0 mm 1 mps 685 mmHg 48%
02:00 +20°C° 0 mm 1 mps 685 mmHg 50%
03:00 +20°C° 0 mm 1 mps 685 mmHg 51%
04:00 +20°C° 0 mm 1 mps 685 mmHg 50%
05:00 +21°C° 0 mm 1 mps 685 mmHg 49%
06:00 +22°C° 0 mm 1 mps 685 mmHg 48%
07:00 +23°C° 0 mm 1 mps 686 mmHg 43%
08:00 +25°C° 0 mm 1 mps 686 mmHg 39%
09:00 +26°C° 0 mm 1 mps 686 mmHg 34%
10:00 +28°C° 0 mm 1 mps 686 mmHg 31%
11:00 +29°C° 0 mm 1 mps 686 mmHg 28%
12:00 +31°C° 0 mm 2 mps 686 mmHg 24%
13:00 +31°C° 0 mm 2 mps 686 mmHg 24%
14:00 +32°C° 0 mm 2 mps 685 mmHg 24%
15:00 +33°C° 0 mm 3 mps 685 mmHg 23%
16:00 +30°C° 0.5 mm 2 mps 685 mmHg 30%
17:00 +28°C° 0.5 mm 2 mps 684 mmHg 36%
18:00 +26°C° 0.5 mm 2 mps 684 mmHg 43%
19:00 +25°C° 0.1 mm 2 mps 684 mmHg 46%
20:00 +24°C° 0.1 mm 2 mps 685 mmHg 50%
21:00 +23°C° 0.1 mm 1 mps 685 mmHg 53%
22:00 +22°C° 0 mm 1 mps 685 mmHg 56%
23:00 +21°C° 0 mm 1 mps 684 mmHg 60%

Day after tomorrow, 15 June, Tuesday

Time Temperature Precipitation Wind Pressure Humidity
00:00 +21°C° 0 mm 1 mps 684 mmHg 63%
01:00 +20°C° 0 mm 1 mps 684 mmHg 67%
02:00 +20°C° 0 mm 1 mps 684 mmHg 70%
03:00 +19°C° 0 mm 1 mps 684 mmHg 74%
04:00 +20°C° 0 mm 1 mps 684 mmHg 73%
05:00 +20°C° 0 mm 1 mps 684 mmHg 72%
06:00 +21°C° 0 mm 1 mps 684 mmHg 71%
07:00 +23°C° 0 mm 1 mps 685 mmHg 63%
08:00 +24°C° 0 mm 1 mps 685 mmHg 55%
09:00 +26°C° 0 mm 2 mps 685 mmHg 47%
10:00 +28°C° 0 mm 2 mps 685 mmHg 41%
11:00 +29°C° 0 mm 3 mps 685 mmHg 36%
12:00 +31°C° 0 mm 3 mps 685 mmHg 31%
13:00 +32°C° 0 mm 4 mps 684 mmHg 30%
14:00 +32°C° 0 mm 5 mps 684 mmHg 29%
15:00 +33°C° 0 mm 5 mps 683 mmHg 28%
16:00 +32°C° 0 mm 6 mps 683 mmHg 29%
17:00 +32°C° 0 mm 6 mps 683 mmHg 30%
18:00 +32°C° 0 mm 6 mps 682 mmHg 30%
19:00 +28°C° 0.1 mm 6 mps 682 mmHg 35%
20:00 +26°C° 0.1 mm 5 mps 682 mmHg 40%
21:00 +23°C° 0.1 mm 4 mps 682 mmHg 45%
22:00 +22°C° 0.2 mm 3 mps 682 mmHg 49%
23:00 +21°C° 0.2 mm 2 mps 682 mmHg 53%

16 June, Wednesday

Time Temperature Precipitation Wind Pressure Humidity
00:00 +22°C° 0.2 mm 1 mps 683 mmHg 58%
01:00 +21°C° 0.1 mm 1 mps 682 mmHg 60%
02:00 +21°C° 0.1 mm 1 mps 682 mmHg 62%
03:00 +20°C° 0.1 mm 2 mps 681 mmHg 64%
04:00 +20°C° 0.2 mm 1 mps 681 mmHg 65%
05:00 +20°C° 0.2 mm 1 mps 681 mmHg 66%
06:00 +20°C° 0.2 mm 1 mps 681 mmHg 67%
07:00 +21°C° 0.1 mm 2 mps 682 mmHg 59%
08:00 +24°C° 0.1 mm 3 mps 682 mmHg 50%
09:00 +26°C° 0.1 mm 4 mps 682 mmHg 42%
10:00 +26°C° 0.1 mm 5 mps 682 mmHg 41%
11:00 +26°C° 0.1 mm 6 mps 682 mmHg 40%
12:00 +26°C° 0.1 mm 7 mps 682 mmHg 40%
13:00 +27°C° 0 mm 6 mps 682 mmHg 36%
14:00 +29°C° 0 mm 4 mps 681 mmHg 32%
15:00 +30°C° 0 mm 3 mps 681 mmHg 28%
16:00 +30°C° 0 mm 3 mps 680 mmHg 30%
17:00 +29°C° 0 mm 4 mps 680 mmHg 32%
18:00 +29°C° 0 mm 4 mps 680 mmHg 34%
19:00 +26°C° 0.3 mm 4 mps 680 mmHg 43%
20:00 +24°C° 0.3 mm 3 mps 680 mmHg 52%
21:00 +20°C° 0.3 mm 3 mps 680 mmHg 60%
22:00 +20°C° 0 mm 2 mps 680 mmHg 62%
23:00 +20°C° 0 mm 2 mps 680 mmHg 64%

17 June, Thursday

Time Temperature Precipitation Wind Pressure Humidity
00:00 +20°C° 0 mm 1 mps 680 mmHg 66%
01:00 +19°C° 0.2 mm 2 mps 679 mmHg 67%
02:00 +19°C° 0.2 mm 3 mps 679 mmHg 68%
03:00 +19°C° 0.2 mm 3 mps 679 mmHg 68%
04:00 +18°C° 0.5 mm 3 mps 679 mmHg 70%
05:00 +17°C° 0.5 mm 3 mps 678 mmHg 72%
06:00 +16°C° 0.5 mm 2 mps 678 mmHg 74%
07:00 +16°C° 1.4 mm 2 mps 678 mmHg 76%
08:00 +16°C° 1.4 mm 2 mps 679 mmHg 77%
09:00 +16°C° 1.4 mm 2 mps 679 mmHg 79%
10:00 +17°C° 0.7 mm 2 mps 679 mmHg 74%
11:00 +18°C° 0.7 mm 2 mps 679 mmHg 69%
12:00 +19°C° 0.7 mm 2 mps 679 mmHg 64%
13:00 +20°C° 0.1 mm 3 mps 679 mmHg 57%
14:00 +22°C° 0.1 mm 3 mps 679 mmHg 50%
15:00 +25°C° 0.1 mm 4 mps 679 mmHg 43%
16:00 +23°C° 0 mm 4 mps 679 mmHg 45%
17:00 +23°C° 0 mm 4 mps 679 mmHg 47%
18:00 +22°C° 0 mm 5 mps 679 mmHg 49%
19:00 +21°C° 0.1 mm 4 mps 679 mmHg 54%
20:00 +19°C° 0.1 mm 3 mps 679 mmHg 59%
21:00 +18°C° 0.1 mm 2 mps 679 mmHg 64%
22:00 +17°C° 0 mm 2 mps 680 mmHg 65%
23:00 +17°C° 0 mm 2 mps 680 mmHg 67%

18 June, Friday

Time Temperature Precipitation Wind Pressure Humidity
00:00 +16°C° 0 mm 2 mps 680 mmHg 69%
01:00 +16°C° 0 mm 2 mps 680 mmHg 69%
02:00 +16°C° 0 mm 2 mps 680 mmHg 69%
03:00 +15°C° 0 mm 2 mps 680 mmHg 69%
04:00 +16°C° 0 mm 2 mps 680 mmHg 67%
05:00 +16°C° 0 mm 1 mps 680 mmHg 65%
06:00 +18°C° 0 mm 1 mps 680 mmHg 63%
07:00 +19°C° 0 mm 1 mps 681 mmHg 58%
08:00 +20°C° 0 mm 2 mps 681 mmHg 53%
09:00 +21°C° 0 mm 2 mps 681 mmHg 47%
10:00 +24°C° 0 mm 3 mps 681 mmHg 44%
11:00 +25°C° 0 mm 4 mps 681 mmHg 41%
12:00 +26°C° 0 mm 5 mps 681 mmHg 37%
13:00 +27°C° 0 mm 5 mps 681 mmHg 36%
14:00 +27°C° 0 mm 6 mps 680 mmHg 34%
15:00 +27°C° 0 mm 7 mps 680 mmHg 32%
16:00 +26°C° 0 mm 7 mps 679 mmHg 39%
17:00 +24°C° 0 mm 7 mps 679 mmHg 45%
18:00 +23°C° 0 mm 8 mps 679 mmHg 51%
19:00 +21°C° 0.3 mm 6 mps 679 mmHg 59%
20:00 +20°C° 0.3 mm 5 mps 680 mmHg 68%
21:00 +18°C° 0.3 mm 4 mps 680 mmHg 76%
22:00 +18°C° 0.1 mm 4 mps 680 mmHg 78%
23:00 +18°C° 0.1 mm 4 mps 680 mmHg 79%
Show more